VE3KSR Weather Reports


Display with metric or nautical units.
time (UTC)temp
F
wind
direction
speed
MPH
gust
MPH
rain 1hr
in
rain 24hr
in
rain mn
in
humidity
%
barometer
mb
20260905155722 0 0 0.0 0.0 0.00 0.00 0.00 70
20260905155221 0 0 0.0 0.0 0.00 0.00 0.00 71
20260905154722 0 0 0.0 0.0 0.00 0.00 0.00 72
20260905154221 0 0 0.0 0.0 0.00 0.00 0.00 71
20260905153721 0 0 0.0 0.0 0.00 0.00 0.00 70
20260905153221 0 0 0.0 0.0 0.00 0.00 0.00 72
20260905152721 0 0 0.0 0.0 0.00 0.00 0.00 73
20260905152221 0 0 0.0 0.0 0.00 0.00 0.00 74
20260905151721 0 0 0.0 0.0 0.00 0.00 0.00 72
20260905151221 0 0 0.0 0.0 0.00 0.00 0.00 73
20260905150221 -55 0 0.0 0.0 0.00 0.00 0.00 74
20260905145721 -34 0 0.0 0.0 0.00 0.00 0.00 76
20260905145221 -9 0 0.0 0.0 0.00 0.00 0.00 77
20260905144721 -9 0 0.0 0.0 0.00 0.00 0.00 76
20260905144221 -27 0 0.0 0.0 0.00 0.00 0.00 77
20260905143721 -27 0 0.0 0.0 0.00 0.00 0.00 78
20260905143221 0 0 0.0 0.0 0.00 0.00 0.00 77
20260905142722 0 0 0.0 0.0 0.00 0.00 0.00 76
20260905142221 0 0 0.0 0.0 0.00 0.00 0.00 77
20260905141721 -55 0 0.0 0.0 0.00 0.00 0.00 77
20260905141221 0 0 0.0 0.0 0.00 0.00 0.00 78
20260905140722 0 0 0.0 0.0 0.00 0.00 0.00 79
20260905140221 0 0 0.0 0.0 0.00 0.00 0.00 80
20260905135722 0 0 0.0 0.0 0.00 0.00 0.00 81
20260905135221 0 0 0.0 0.0 0.00 0.00 0.00 80
20260905134721 -33 0 0.0 0.0 0.00 0.00 0.00 82
20260905134222 -55 0 0.0 0.0 0.00 0.00 0.00 82
20260905133722 0 0 0.0 0.0 0.00 0.00 0.00 82
20260905133223 0 0 0.0 0.0 0.00 0.00 0.00 83
20260905132721 0 0 0.0 0.0 0.00 0.00 0.00 83
20260905132221 0 0 0.0 0.0 0.00 0.00 0.00 84
20260905131721 0 0 0.0 0.0 0.00 0.00 0.00 85
20260905131222 0 0 0.0 0.0 0.00 0.00 0.00 85
20260905130721 0 0 0.0 0.0 0.00 0.00 0.00 87
20260905130221 0 0 0.0 0.0 0.00 0.00 0.00 88
20260905125721 0 0 0.0 0.0 0.00 0.00 0.00 89
20260905125221 0 0 0.0 0.0 0.00 0.00 0.00 90
20260905124722 0 0 0.0 0.0 0.00 0.00 0.00 90
20260905124221 0 0 0.0 0.0 0.00 0.00 0.00 91
20260905123722 0 0 0.0 0.0 0.00 0.00 0.00 92
20260905123222 0 0 0.0 0.0 0.00 0.00 0.00 92
20260905122721 0 0 0.0 0.0 0.00 0.00 0.00 93
20260905122221 0 0 0.0 0.0 0.00 0.00 0.00 93
20260905121722 0 0 0.0 0.0 0.00 0.00 0.00 93
20260905121224 0 0 0.0 0.0 0.00 0.00 0.00 93
20260905120723 0 0 0.0 0.0 0.00 0.00 0.00 94
20260905120221 0 0 0.0 0.0 0.00 0.00 0.00 94
20260905115721 0 0 0.0 0.0 0.00 0.00 0.00 47
20260905115222 0 0 0.0 0.0 0.00 0.00 0.00 95
20260905114721 0 0 0.0 0.0 0.00 0.00 0.00 95
20260905114222 0 0 0.0 0.0 0.00 0.00 0.00 95
20260905113722 0 0 0.0 0.0 0.00 0.00 0.00 95
20260905113222 0 0 0.0 0.0 0.00 0.00 0.00 95
20260905112724 0 0 0.0 0.0 0.00 0.00 0.00 95
20260905112223 0 0 0.0 0.0 0.00 0.00 0.00 96
20260905111721 0 0 0.0 0.0 0.00 0.00 0.00 96
20260905111221 0 0 0.0 0.0 0.00 0.00 0.00 96
20260905110723 0 0 0.0 0.0 0.00 0.00 0.00 96
20260905110221 0 0 0.0 0.0 0.00 0.00 0.00 96
20260905105724 0 0 0.0 0.0 0.00 0.00 0.00 96
20260905105222 0 0 0.0 0.0 0.00 0.00 0.00 96
20260905104724 0 0 0.0 0.0 0.00 0.00 0.00 96
20260905104221 0 0 0.0 0.0 0.00 0.00 0.00 96
20260905103721 0 0 0.0 0.0 0.00 0.00 0.00 96
20260905103223 0 0 0.0 0.0 0.00 0.00 0.00 95
20260905102722 0 0 0.0 0.0 0.00 0.00 0.00 95
20260905102221 0 0 0.0 0.0 0.00 0.00 0.00 95
20260905101721 0 0 0.0 0.0 0.00 0.00 0.00 95
20260905101221 0 0 0.0 0.0 0.00 0.00 0.00 95
20260905100721 0 0 0.0 0.0 0.00 0.00 0.00 95
20260905100223 0 0 0.0 0.0 0.00 0.00 0.00 95
20260905095721 0 0 0.0 0.0 0.00 0.00 0.00 94
20260905095221 0 0 0.0 0.0 0.00 0.00 0.00 94
20260905094722 0 0 0.0 0.0 0.00 0.00 0.00 94
20260905094222 0 0 0.0 0.0 0.00 0.00 0.00 94
20260905093722 0 0 0.0 0.0 0.00 0.00 0.00 94
20260905093221 0 0 0.0 0.0 0.00 0.00 0.00 94
20260905092722 0 0 0.0 0.0 0.00 0.00 0.00 93
20260905092223 0 0 0.0 0.0 0.00 0.00 0.00 93
20260905091722 0 0 0.0 0.0 0.00 0.00 0.00 93
20260905091223 0 0 0.0 0.0 0.00 0.00 0.00 93
20260905090722 0 0 0.0 0.0 0.00 0.00 0.00 93
20260905090222 0 0 0.0 0.0 0.00 0.00 0.00 93
20260905085722 0 0 0.0 0.0 0.00 0.00 0.00 93
20260905085223 0 0 0.0 0.0 0.00 0.00 0.00 93
20260905084722 0 0 0.0 0.0 0.00 0.00 0.00 93
20260905084223 0 0 0.0 0.0 0.00 0.00 0.00 93
20260905083722 0 0 0.0 0.0 0.00 0.00 0.00 92
20260905083222 0 0 0.0 0.0 0.00 0.00 0.00 92
20260905082722 0 0 0.0 0.0 0.00 0.00 0.00 92
20260905082222 0 0 0.0 0.0 0.00 0.00 0.00 92
20260905081722 0 0 0.0 0.0 0.00 0.00 0.00 92
20260905081222 0 0 0.0 0.0 0.00 0.00 0.00 92
20260905080723 0 0 0.0 0.0 0.00 0.00 0.00 92
20260905080223 0 0 0.0 0.0 0.00 0.00 0.00 92
20260905075723 0 0 0.0 0.0 0.00 0.00 0.00 92
20260905075222 0 0 0.0 0.0 0.00 0.00 0.00 92
20260905074722 0 0 0.0 0.0 0.00 0.00 0.00 92
20260905074222 0 0 0.0 0.0 0.00 0.00 0.00 92
20260905073722 0 0 0.0 0.0 0.00 0.00 0.00 92
20260905073222 0 0 0.0 0.0 0.00 0.00 0.00 92
20260905072722 0 0 0.0 0.0 0.00 0.00 0.00 92
20260905072222 0 0 0.0 0.0 0.00 0.00 0.00 91
20260905071722 0 0 0.0 0.0 0.00 0.00 0.00 91
20260905071222 0 0 0.0 0.0 0.00 0.00 0.00 91
20260905070723 0 0 0.0 0.0 0.00 0.00 0.00 91
20260905070223 0 0 0.0 0.0 0.00 0.00 0.00 91
20260905065722 0 0 0.0 0.0 0.00 0.00 0.00 90
20260905065222 0 0 0.0 0.0 0.00 0.00 0.00 90
20260905064724 0 0 0.0 0.0 0.00 0.00 0.00 90
20260905064222 0 0 0.0 0.0 0.00 0.00 0.00 90
20260905063722 0 0 0.0 0.0 0.00 0.00 0.00 90
20260905063223 0 0 0.0 0.0 0.00 0.00 0.00 90
20260905062722 0 0 0.0 0.0 0.00 0.00 0.00 90
20260905062222 0 0 0.0 0.0 0.00 0.00 0.00 90
20260905061724 0 0 0.0 0.0 0.00 0.00 0.00 90
20260905061222 0 0 0.0 0.0 0.00 0.00 0.00 90
20260905060723 0 0 0.0 0.0 0.00 0.00 0.00 89
20260905060222 0 0 0.0 0.0 0.00 0.00 0.00 89
20260905055722 0 0 0.0 0.0 0.00 0.00 0.00 89
20260905055222 0 0 0.0 0.0 0.00 0.00 0.00 90
20260905054722 0 0 0.0 0.0 0.00 0.00 0.00 90
20260905054222 0 0 0.0 0.0 0.00 0.00 0.00 90
20260905053722 0 0 0.0 0.0 0.00 0.00 0.00 90
20260905053222 0 0 0.0 0.0 0.00 0.00 0.00 90
20260905052725 0 0 0.0 0.0 0.00 0.00 0.00 90
20260905052222 0 0 0.0 0.0 0.00 0.00 0.00 90
20260905051723 0 0 0.0 0.0 0.00 0.00 0.00 90
20260905051224 0 0 0.0 0.0 0.00 0.00 0.00 90
20260905050722 0 0 0.0 0.0 0.00 0.00 0.00 90
20260905050222 0 0 0.0 0.0 0.00 0.00 0.00 90
20260905045722 0 0 0.0 0.0 0.00 0.00 0.00 90
20260905045222 0 0 0.0 0.0 0.00 0.00 0.00 91
20260905044724 0 0 0.0 0.0 0.00 0.00 0.00 91
20260905044222 0 0 0.0 0.0 0.00 0.00 0.00 92
20260905043723 0 0 0.0 0.0 0.00 0.00 0.00 92
20260905043224 0 0 0.0 0.0 0.00 0.00 0.00 93
20260905042722 0 0 0.0 0.0 0.00 0.00 0.00 92
20260905042222 0 0 0.0 0.0 0.00 0.00 0.00 92
20260905041724 0 0 0.0 0.0 0.00 0.00 0.00 92
20260905041223 0 0 0.0 0.0 0.00 0.00 0.00 91
20260905040723 0 0 0.0 0.0 0.00 0.00 0.00 91
20260905040222 0 0 0.0 0.0 0.00 0.00 0.00 92
20260905035722 0 0 0.0 0.0 0.00 0.00 0.00 92
20260905035223 0 0 0.0 0.0 0.00 0.00 0.00 92
20260905034723 0 0 0.0 0.0 0.00 0.00 0.00 92
20260905034222 0 0 0.0 0.0 0.00 0.00 0.00 92
20260905033722 0 0 0.0 0.0 0.00 0.00 0.00 93
20260905033223 0 0 0.0 0.0 0.00 0.00 0.00 93
20260905032722 0 0 0.0 0.0 0.00 0.00 0.00 93
20260905032223 0 0 0.0 0.0 0.00 0.00 0.00 93
20260905031722 0 0 0.0 0.0 0.00 0.00 0.00 94
20260905031223 0 0 0.0 0.0 0.00 0.00 0.00 93
20260905030724 0 0 0.0 0.0 0.00 0.00 0.00 93
20260905030223 0 0 0.0 0.0 0.00 0.00 0.00 93
20260905025722 0 0 0.0 0.0 0.00 0.00 0.00 92
20260905025224 0 0 0.0 0.0 0.00 0.00 0.00 92
20260905024723 0 0 0.0 0.0 0.00 0.00 0.00 92
20260905024222 0 0 0.0 0.0 0.00 0.00 0.00 92
20260905023723 0 0 0.0 0.0 0.00 0.00 0.00 92
20260905023222 0 0 0.0 0.0 0.00 0.00 0.00 91
20260905022722 0 0 0.0 0.0 0.00 0.00 0.00 91
20260905022222 0 0 0.0 0.0 0.00 0.00 0.00 91
20260905021722 0 0 0.0 0.0 0.00 0.00 0.00 91
20260905021223 0 0 0.0 0.0 0.00 0.00 0.00 90
20260905020722 0 0 0.0 0.0 0.00 0.00 0.00 90
20260905020223 0 0 0.0 0.0 0.00 0.00 0.00 89
20260905015725 0 0 0.0 0.0 0.00 0.00 0.00 88
20260905015225 0 0 0.0 0.0 0.00 0.00 0.00 88
20260905014722 0 0 0.0 0.0 0.00 0.00 0.00 87
20260905014222 0 0 0.0 0.0 0.00 0.00 0.00 87
20260905013723 0 0 0.0 0.0 0.00 0.00 0.00 86
20260905013224 0 0 0.0 0.0 0.00 0.00 0.00 85
20260905012723 0 0 0.0 0.0 0.00 0.00 0.00 85
20260905012223 0 0 0.0 0.0 0.00 0.00 0.00 85
20260905011723 0 0 0.0 0.0 0.00 0.00 0.00 85
20260905011224 0 0 0.0 0.0 0.00 0.00 0.00 86
20260905010723 0 0 0.0 0.0 0.00 0.00 0.00 87
20260905010222 0 0 0.0 0.0 0.00 0.00 0.00 86
20260905005722 0 0 0.0 0.0 0.00 0.00 0.00 86
20260905005223 0 0 0.0 0.0 0.00 0.00 0.00 86
20260905004723 0 0 0.0 0.0 0.00 0.00 0.00 87
20260905004223 0 0 0.0 0.0 0.00 0.00 0.00 87
20260905003722 0 0 0.0 0.0 0.00 0.00 0.00 88
20260905003224 72 0 0.0 0.0 0.00 0.00 0.00 90
20260905002723 72 0 0.0 0.0 0.00 0.00 0.00 89
20260905002223 72 0 0.0 0.0 0.00 0.00 0.00 89
20260905001724 73 0 0.0 0.0 0.00 0.00 0.00 89
20260905001223 73 0 0.0 0.0 0.00 0.00 0.00 88
20260905000723 73 0 0.0 0.0 0.00 0.00 0.00 87
20260905000226 73 0 0.0 0.0 0.00 0.00 0.00 87
20260904235723 73 0 0.0 0.0 0.00 0.00 0.00 87
20260904235224 73 0 0.0 0.0 0.00 0.00 0.00 86
20260904234723 73 0 0.0 0.0 0.00 0.00 0.00 85
20260904234223 73 0 0.0 0.0 0.00 0.00 0.00 85
20260904233723 0 0 0.0 0.0 0.00 0.00 0.00 84
20260904233225 0 0 0.0 0.0 0.00 0.00 0.00 82
20260904232723 0 0 0.0 0.0 0.00 0.00 0.00 81
20260904232223 0 0 0.0 0.0 0.00 0.00 0.00 81
20260904231723 0 0 0.0 0.0 0.00 0.00 0.00 80
20260904231224 0 0 0.0 0.0 0.00 0.00 0.00 80
20260904230723 0 0 0.0 0.0 0.00 0.00 0.00 81
20260904230223 0 0 0.0 0.0 0.00 0.00 0.00 81
20260904225225 0 0 0.0 0.0 0.00 0.00 0.00 81
20260904224723 0 0 0.0 0.0 0.00 0.00 0.00 81
20260904224223 0 0 0.0 0.0 0.00 0.00 0.00 81
20260904223723 0 0 0.0 0.0 0.00 0.00 0.00 81
20260904223223 0 0 0.0 0.0 0.00 0.00 0.00 80
20260904222723 0 0 0.0 0.0 0.00 0.00 0.00 80
20260904222223 0 0 0.0 0.0 0.00 0.00 0.00 80
20260904221723 0 0 0.0 0.0 0.00 0.00 0.00 72
20260904221223 0 0 0.0 0.0 0.00 0.00 0.00 80
20260904220723 0 0 0.0 0.0 0.00 0.00 0.00 79
20260904220223 0 0 0.0 0.0 0.00 0.00 0.00 79
20260904215724 0 0 0.0 0.0 0.00 0.00 0.00 78
20260904215223 0 0 0.0 0.0 0.00 0.00 0.00 78
20260904214723 0 0 0.0 0.0 0.00 0.00 0.00 77
20260904214223 0 0 0.0 0.0 0.00 0.00 0.00 76
20260904213723 0 0 0.0 0.0 0.00 0.00 0.00 76
20260904213223 0 0 0.0 0.0 0.00 0.00 0.00 75
20260904212723 0 0 0.0 0.0 0.00 0.00 0.00 78
20260904212224 0 0 0.0 0.0 0.00 0.00 0.00 78
20260904211723 0 0 0.0 0.0 0.00 0.00 0.00 78
20260904211223 0 0 0.0 0.0 0.00 0.00 0.00 77
20260904210723 -55 0 0.0 0.0 0.00 0.00 0.00 78
20260904210223 0 0 0.0 0.0 0.00 0.00 0.00 78
20260904205723 0 0 0.0 0.0 0.00 0.00 0.00 77
20260904205223 0 0 0.0 0.0 0.00 0.00 0.00 76
20260904204723 0 0 0.0 0.0 0.00 0.00 0.00 75
20260904204223 0 0 0.0 0.0 0.00 0.00 0.00 75
20260904203723 0 0 0.0 0.0 0.00 0.00 0.00 75
20260904203223 0 0 0.0 0.0 0.00 0.00 0.00 74
20260904202723 -55 0 0.0 0.0 0.00 0.00 0.00 76
20260904202223 -55 0 0.0 0.0 0.00 0.00 0.00 75
20260904201724 -55 0 0.0 0.0 0.00 0.00 0.00 77
20260904201223 0 0 0.0 0.0 0.00 0.00 0.00 77
20260904200724 -55 0 0.0 0.0 0.00 0.00 0.00 78
20260904200223 -55 0 0.0 0.0 0.00 0.00 0.00 77
20260904195723 0 0 0.0 0.0 0.00 0.00 0.00 77
20260904195223 -55 0 0.0 0.0 0.00 0.00 0.00 78
20260904194723 -55 0 0.0 0.0 0.00 0.00 0.00 78
20260904194223 0 0 0.0 0.0 0.00 0.00 0.00 78
20260904193723 -48 0 0.0 0.0 0.00 0.00 0.00 79
20260904193225 -35 0 0.0 0.0 0.00 0.00 0.00 79
20260904192723 -39 0 0.0 0.0 0.00 0.00 0.00 77
20260904192223 -37 0 0.0 0.0 0.00 0.00 0.00 78
20260904191723 -34 0 0.0 0.0 0.00 0.00 0.00 78
20260904191223 -42 0 0.0 0.0 0.00 0.00 0.00 78
20260904190723 -31 0 0.0 0.0 0.00 0.00 0.00 78
20260904190223 -43 0 0.0 0.0 0.00 0.00 0.00 77
20260904185723 -42 0 0.0 0.0 0.00 0.00 0.00 76
20260904184723 -28 0 0.0 0.0 0.00 0.00 0.00 75
20260904184223 -43 0 0.0 0.0 0.00 0.00 0.00 75
20260904183723 74 0 0.0 0.0 0.00 0.00 0.00 76
20260904183223 74 0 0.0 0.0 0.00 0.00 0.00 77
20260904182723 -53 0 0.0 0.0 0.00 0.00 0.00 77
20260904182223 -54 0 0.0 0.0 0.00 0.00 0.00 77
20260904181723 74 0 0.0 0.0 0.00 0.00 0.00 76
20260904181223 19 0 0.0 0.0 0.00 0.00 0.00 76
20260904180723 -40 0 0.0 0.0 0.00 0.00 0.00 78
20260904180223 74 0 0.0 0.0 0.00 0.00 0.00 79
20260904175723 73 0 0.0 0.0 0.00 0.00 0.00 81
20260904174723 -43 0 0.0 0.0 0.00 0.00 0.00 80
20260904174224 -51 0 0.0 0.0 0.00 0.00 0.00 79
20260904173723 -44 0 0.0 0.0 0.00 0.00 0.00 80
20260904173223 -29 0 0.0 0.0 0.00 0.00 0.00 79
20260904172723 74 0 0.0 0.0 0.00 0.00 0.00 81
20260904172223 -22 0 0.0 0.0 0.00 0.00 0.00 81
20260904170800 73 0 0.0 0.0 0.00 0.00 0.00 82
20260904170724 73 0 0.0 0.0 0.00 0.00 0.00 82
20260904170223 -54 0 0.0 0.0 0.00 0.00 0.00 82
20260904165723 73 0 0.0 0.0 0.00 0.00 0.00 83
20260904165223 74 0 0.0 0.0 0.00 0.00 0.00 83
20260904164723 74 0 0.0 0.0 0.00 0.00 0.00 82
20260904164223 74 0 0.0 0.0 0.00 0.00 0.00 82
20260904164006 -55 0 0.0 0.0 0.00 0.00 0.00 79
20260904163723 -55 0 0.0 0.0 0.00 0.00 0.00 79
20260904163224 0 0 0.0 0.0 0.00 0.00 0.00 78
20260904162723 0 0 0.0 0.0 0.00 0.00 0.00 78
20260904162224 0 0 0.0 0.0 0.00 0.00 0.00 79
20260904161724 0 0 0.0 0.0 0.00 0.00 0.00 79
20260904161223 75 0 0.0 0.0 0.00 0.00 0.00 80
20260904160723 75 0 0.0 0.0 0.00 0.00 0.00 79
20260904160223 0 0 0.0 0.0 0.00 0.00 0.00 83